Location: Edmonton
(53.5500°N, 113.5000°W)
Time: 18:25:31
(UTC-07:00)

N. Korean satellite - Pass Details

Date: 27 October 2019
Orbit: 456 x 506 km, 97.2° (Epoch: 17 November)

Event Time Altitude Azimuth Distance (km) Brightness Sun altitude
Rises 19:01:03 0° 186° (S) 2,479 10.4 -7.9°
Reaches altitude 10° 19:03:11 10° 195° (SSW) 1,615 9.6 -8.2°
Maximum altitude 19:06:24 35° 263° (W) 776 8.4 -8.7°
Drops below altitude 10° 19:09:41 10° 331° (NNW) 1,652 9.5 -9.2°
Sets 19:11:53 0° 341° (NNW) 2,545 10.4 -9.5°
